EW4498 Weather Reports


Display with metric or nautical units.
time (UTC)temp
F
wind
direction
speed
MPH
gust
MPH
rain 1hr
in
rain 24hr
in
rain mn
in
humidity
%
barometer
mb
20260906014526 56 235 2.0 15.0 0.00 0.10 0.00 79 1016.5
20260906013016 56 311 5.0 11.0 0.00 0.10 0.00 79 1016.4
20260906011513 56 314 3.0 15.0 0.00 0.10 0.00 78 1016.2
20260906010009 56 326 2.0 14.0 0.00 0.10 0.00 78 1016.0
20260906004508 56 219 4.0 13.0 0.00 0.10 0.00 79 1016.0
20260906003006 57 220 6.0 15.0 0.00 0.10 0.00 78 1015.7
20260906001504 57 257 3.0 14.0 0.00 0.10 0.00 78 1015.6
20260906000003 57 245 4.0 15.0 0.00 0.10 0.00 78 1015.5
20260905234603 57 238 3.0 16.0 0.00 0.10 0.00 78 1015.3
20260905233059 57 22 4.0 14.0 0.00 0.10 0.00 78 1015.1
20260905231557 57 245 5.0 15.0 0.00 0.10 0.00 78 1014.9
20260905230055 57 304 5.0 15.0 0.00 0.10 0.00 77 1014.7
20260905224603 57 298 4.0 13.0 0.00 0.10 0.00 77 1014.5
20260905223049 57 219 5.0 16.0 0.00 0.10 0.00 76 1014.2
20260905221547 57 318 4.0 15.0 0.00 0.10 0.00 77 1014.2
20260905220044 57 31 6.0 19.0 0.00 0.10 0.00 76 1013.9
20260905214541 57 249 4.0 21.0 0.00 0.10 0.10 76 1013.7
20260905213040 57 192 7.0 20.0 0.00 0.10 0.10 75 1013.6
20260905211537 57 235 3.0 12.0 0.00 0.10 0.10 76 1013.4
20260905210037 57 297 4.0 17.0 0.00 0.10 0.10 76 1013.2
20260905204533 57 5 4.0 14.0 0.00 0.10 0.10 76 1013.1
20260905203030 57 294 4.0 16.0 0.00 0.10 0.10 76 1012.9
20260905201527 57 294 5.0 13.0 0.00 0.10 0.10 76 1012.8
20260905200034 58 309 3.0 18.0 0.00 0.10 0.10 76 1012.5
20260905194525 58 231 5.0 18.0 0.00 0.10 0.10 76 1012.5
20260905193023 58 187 5.0 12.0 0.00 0.10 0.10 76 1012.5
20260905191520 58 294 6.0 13.0 0.00 0.10 0.10 76 1012.1
20260905190039 58 184 7.0 15.0 0.00 0.10 0.10 76 1012.0
20260905184516 58 307 4.0 11.0 0.00 0.10 0.10 77 1011.9
20260905183016 58 232 3.0 14.0 0.00 0.10 0.10 76 1011.8
20260905181517 58 225 5.0 14.0 0.00 0.10 0.10 76 1011.5
20260905180019 59 229 4.0 16.0 0.00 0.10 0.10 76 1011.4
20260905174510 59 40 6.0 20.0 0.00 0.18 0.10 74 1011.3
20260905173008 59 246 3.0 13.0 0.00 0.18 0.10 75 1011.0
20260905171507 59 231 7.0 20.0 0.00 0.18 0.10 73 1010.9
20260905170004 60 225 5.0 14.0 0.00 0.18 0.10 74 1010.8
20260905164503 60 269 5.0 11.0 0.00 0.18 0.10 74 1010.6
20260905163002 60 229 5.0 17.0 0.00 0.18 0.10 75 1010.4
20260905161501 60 155 6.0 14.0 0.00 0.18 0.10 77 1010.4
20260905160122 59 191 3.0 12.0 0.06 0.18 0.10 81 1010.0
20260905154559 59 273 2.0 8.0 0.07 0.18 0.10 83 1010.0
20260905153106 59 327 2.0 8.0 0.07 0.18 0.10 85 1010.0
20260905151541 59 281 2.0 12.0 0.06 0.17 0.09 81 1009.8
20260905150038 63 200 5.0 17.0 0.01 0.12 0.04 72 1009.7
20260905144525 64 296 9.0 21.0 0.00 0.12 0.03 64 1009.3
20260905143116 65 240 6.0 17.0 0.00 0.12 0.03 64 1009.2
20260905141508 64 299 4.0 16.0 0.00 0.12 0.03 67 1009.1
20260905140105 63 317 2.0 10.0 0.00 0.12 0.03 76 1009.1
20260905134546 63 207 4.0 18.0 0.00 0.17 0.03 72 1009.2
20260905133038 65 311 5.0 19.0 0.00 0.17 0.03 65 1009.0
20260905131530 65 323 5.0 18.0 0.00 0.17 0.03 65 1008.8
20260905130121 66 306 8.0 20.0 0.00 0.17 0.03 64 1008.6
20260905124545 67 234 5.0 14.0 0.00 0.20 0.03 61 1008.4
20260905123143 66 227 6.0 15.0 0.00 0.20 0.03 58 1008.2
20260905121550 66 195 5.0 16.0 0.00 0.20 0.03 64 1007.9
20260905120139 65 281 5.0 19.0 0.01 0.20 0.03 65 1007.9
20260905114605 65 206 4.0 14.0 0.01 0.25 0.03 67 1007.8
20260905113032 64 23 3.0 12.0 0.01 0.25 0.03 68 1007.8
20260905111643 64 245 5.0 17.0 0.01 0.25 0.03 67 1007.6
20260905110038 64 232 5.0 15.0 0.00 0.24 0.02 72 1007.5
20260905104643 63 142 7.0 14.0 0.00 0.34 0.02 73 1007.5
20260905103048 62 347 8.0 16.0 0.00 0.34 0.02 74 1007.5
20260905101551 61 232 5.0 15.0 0.00 0.34 0.02 76 1007.3
20260905100153 61 279 6.0 12.0 0.00 0.34 0.02 78 1007.3
20260905094600 60 281 6.0 13.0 0.00 0.39 0.02 81 1007.3
20260905093018 58 325 3.0 10.0 0.00 0.39 0.02 84 1007.2
20260905091530 57 225 4.0 10.0 0.00 0.39 0.02 83 1007.1
20260905090028 59 223 5.0 15.0 0.01 0.39 0.02 81 1007.1
20260905084530 59 252 5.0 10.0 0.02 0.39 0.02 82 1006.9
20260905083025 58 230 4.0 14.0 0.02 0.39 0.02 85 1006.8
20260905081524 58 236 3.0 9.0 0.02 0.39 0.02 85 1006.8
20260905080022 60 281 4.0 17.0 0.02 0.39 0.02 79 1006.6
20260905074521 62 258 6.0 14.0 0.00 0.39 0.00 76 1006.4
20260905073022 62 179 6.0 16.0 0.00 0.39 0.00 79 1006.2
20260905071528 61 237 7.0 14.0 0.00 0.39 0.00 79 1006.2
20260905070009 60 213 4.0 10.0 0.00 0.39 0.00 81 1006.1
20260905064506 59 258 4.0 16.0 0.00 0.39 0.00 81 1005.8
20260905063006 59 223 5.0 10.0 0.00 0.39 0.00 81 1005.9
20260905061503 59 240 4.0 12.0 0.00 0.39 0.00 82 1005.8
20260905060100 59 251 4.0 11.0 0.00 0.39 0.00 83 1005.7
20260905060001 59 273 4.0 11.0 0.00 0.39 0.00 83 1005.7
20260905054558 58 236 4.0 9.0 0.00 0.39 0.00 84 1005.6
20260905053136 58 263 3.0 9.0 0.00 0.39 0.00 84 1005.6
20260905051554 58 236 7.0 14.0 0.00 0.39 0.00 84 1005.5
20260905050050 58 250 3.0 11.0 0.00 0.39 0.00 86 1005.3
20260905044549 57 238 4.0 8.0 0.00 0.39 0.00 87 1005.1
20260905043045 57 219 4.0 15.0 0.00 0.39 0.00 86 1005.0
20260905041545 57 232 4.0 9.0 0.00 0.39 0.00 85 1004.8
20260905040040 57 205 4.0 12.0 0.00 0.39 0.00 85 1004.8
20260905034538 57 213 4.0 12.0 0.00 0.39 0.00 84 1004.7
20260905033049 57 238 3.0 10.0 0.00 0.39 0.00 84 1004.5
20260905031535 57 270 3.0 9.0 0.00 0.39 0.00 84 1004.5
20260905030030 56 251 3.0 11.0 0.00 0.39 0.00 85 1004.3
20260905024529 57 255 1.0 6.0 0.00 0.39 0.00 85 1004.2
20260905023027 57 251 2.0 9.0 0.00 0.39 0.00 84 1004.1
20260905021526 57 219 2.0 11.0 0.00 0.39 0.00 84 1004.0
20260905020026 57 296 3.0 7.0 0.00 0.39 0.00 85 1003.8